Wind_Speed
42 41 40 39 38 38 38 38 38 39 40 40 40 40 40 40 40 40 40 40 39 39 38 38 38 38 38 38 38 37 37 37 37 37 37 37 37 37 37 37 37 37 37
43 42 41 40 39 38 38 39 39 40 40 41 41 42 42 43 42 42 42 41 41 41 41 41 41 41 41 41 40 40 40 40 40 40 40 40 39 39 40 39 39 39 39
44 43 42 40 39 39 39 39 39 40 41 42 42 43 44 44 43 43 43 43 44 44 44 44 44 44 44 44 44 44 44 44 43 43 43 43 42 42 42 42 42 41 42
44 43 42 41 40 40 39 39 40 40 41 42 43 44 44 44 44 44 44 45 46 46 47 47 47 47 47 47 47 47 47 47 46 46 46 46 46 46 45 44 44 44 44
44 43 42 42 41 40 40 40 40 41 41 42 43 44 44 44 45 45 45 46 47 48 49 49 50 50 50 50 50 50 50 49 49 49 49 49 49 49 48 48 47 47 47
43 42 42 41 41 40 40 40 40 41 41 42 43 43 43 44 45 45 46 47 48 49 50 51 52 52 52 53 53 53 53 53 52 52 52 52 52 52 51 51 50 49 49
41 41 41 41 40 40 39 39 40 40 41 41 42 42 43 44 45 45 46 47 48 49 51 52 53 54 55 55 56 56 55 55 54 54 54 54 53 53 54 53 52 52 52
39 40 40 40 40 40 39 40 40 40 40 40 41 42 43 44 44 46 47 48 49 51 52 54 56 57 58 58 58 58 58 57 57 56 55 56 55 55 56 55 55 55 54
36 37 37 38 38 38 38 38 38 38 38 39 40 41 42 43 44 46 47 49 51 53 55 57 58 59 60 60 61 61 60 59 58 57 57 57 56 56 56 56 56 56 56
33 34 34 35 35 36 36 36 36 36 37 38 39 40 42 43 44 46 48 50 52 54 56 58 59 60 61 61 61 61 60 59 58 57 57 57 57 59 57 56 56 56 56
31 31 32 32 33 33 33 34 34 35 37 38 39 41 42 43 45 47 49 51 53 55 56 58 59 60 60 60 58 57 56 55 55 55 55 55 56 57 55 55 56 58 56
29 30 30 30 31 31 32 33 34 35 36 37 39 40 41 43 45 47 49 51 52 53 55 56 57 57 57 57 56 54 54 53 52 52 54 55 54 53 54 55 55 55 56
27 28 28 29 30 30 31 32 33 34 35 36 37 38 40 41 43 45 46 48 49 50 50 51 52 52 52 51 51 51 50 50 50 51 51 51 51 52 53 53 53 54 55
26 27 27 28 29 30 31 31 32 32 33 34 35 36 37 39 40 41 42 43 44 45 45 45 44 44 45 45 45 45 45 46 47 47 47 48 48 49 50 51 52 53 54
25 26 27 28 28 28 28 29 29 29 30 31 32 33 34 35 36 36 37 38 38 38 38 36 35 35 36 37 37 38 39 40 41 43 43 44 45 45 46 48 49 50 51
24 25 26 26 26 25 25 25 26 26 27 28 29 29 30 30 30 31 32 32 31 31 30 29 28 28 28 29 31 32 32 34 36 38 39 40 41 43 44 45 47 49 51
23 23 23 24 23 23 23 23 24 24 25 25 25 25 25 25 25 25 25 25 26 25 24 23 22 23 23 23 25 27 28 31 32 34 35 36 38 39 41 43 45 48 50
20 20 20 20 21 21 22 22 22 22 21 21 21 21 21 21 20 20 20 20 20 19 19 19 20 20 20 21 21 23 25 26 28 30 31 33 36 38 41 43 46 48 51
18 18 18 18 19 20 20 20 19 19 18 18 18 17 17 17 17 16 16 16 16 15 15 15 15 16 17 19 19 21 23 24 26 29 31 34 36 38 41 44 47 50 52
18 18 18 18 18 18 17 18 18 17 16 16 16 15 15 15 15 15 14 14 14 13 13 13 12 13 14 15 17 19 21 24 27 29 32 34 37 40 43 45 48 50 53
18 17 17 17 17 17 16 16 15 15 14 14 14 14 14 14 14 13 13 13 14 14 13 13 13 13 14 16 18 20 23 26 28 31 33 36 39 42 44 47 49 52 54
17 17 17 16 16 16 16 15 14 14 14 13 13 13 13 13 13 14 14 14 13 13 14 14 14 14 16 18 20 23 25 27 30 33 35 38 41 43 46 48 50 52 54
16 16 16 16 15 15 15 15 14 14 14 14 13 13 13 13 13 14 14 14 14 14 14 15 16 18 19 21 23 25 27 30 32 35 37 40 43 45 47 49 51 53 54
15 15 15 15 15 14 14 14 14 14 13 13 13 13 13 14 14 14 13 14 14 15 16 17 18 20 21 23 25 27 30 32 34 37 39 42 45 47 49 50 52 52 52
16 15 15 15 14 14 14 14 14 13 13 13 13 13 14 14 13 13 14 14 15 17 18 20 21 23 25 26 28 30 32 34 36 39 42 44 46 48 49 50 50 50 48
16 15 15 15 15 15 14 14 14 14 14 14 14 14 15 14 14 15 15 16 18 19 21 22 24 25 27 29 30 32 34 36 39 42 44 46 47 48 48 48 47 46 45
Wind_Direction
235 236 236 237 239 241 244 246 249 251 254 256 258 260 261 262 263 265 266 267 268 270 271 271 272 273 274 275 276 277 278 279 281 282 283 284 286 288 288 288 289 289 289
238 239 239 239 240 242 245 247 250 252 254 256 258 259 260 262 263 265 267 268 269 270 270 270 271 272 273 274 275 275 277 278 279 280 281 283 284 285 285 286 286 287 288
239 241 242 243 243 245 247 249 251 254 255 257 258 259 261 263 264 265 266 266 267 267 268 269 270 271 272 273 274 274 276 277 278 279 281 282 283 283 283 283 284 284 285
241 243 245 246 247 248 250 251 253 254 255 256 258 259 261 262 263 263 264 265 266 268 269 269 270 271 271 272 273 274 274 275 277 278 279 280 281 281 281 281 281 282 283
242 244 246 248 249 250 252 253 254 255 256 257 259 260 261 262 263 264 265 266 267 268 269 269 269 270 270 271 271 272 273 274 274 275 276 278 279 279 280 279 279 280 281
242 245 246 248 250 251 252 254 255 256 257 258 259 260 262 263 264 265 266 266 267 268 268 269 269 270 270 270 270 271 271 271 272 273 274 276 277 278 279 279 279 279 281
242 245 246 248 250 252 254 255 255 257 258 259 260 261 263 264 265 266 267 268 268 268 268 269 269 269 269 269 269 269 269 270 270 271 272 274 275 277 276 277 279 280 280
241 244 246 248 250 252 254 255 257 258 260 261 262 264 265 266 267 268 268 269 269 269 269 269 269 269 268 268 269 269 268 269 269 269 270 272 273 274 275 275 278 280 280
240 242 245 247 249 252 254 256 258 260 262 264 265 266 268 269 270 271 271 271 271 271 271 271 270 270 269 269 268 268 267 267 268 268 269 270 272 273 275 275 277 278 278
238 241 243 246 249 251 254 257 260 262 264 266 268 270 272 273 273 274 274 274 274 274 274 273 272 271 270 269 268 267 267 266 266 267 268 269 270 272 273 275 276 277 280
236 239 242 245 248 252 255 258 261 264 267 270 272 273 275 276 277 277 278 278 278 277 276 275 273 272 270 269 268 266 265 265 264 265 266 267 269 270 272 275 276 277 279
235 238 242 246 250 254 257 261 264 267 270 272 274 275 276 278 279 280 280 280 280 279 278 276 274 272 270 268 266 265 263 262 262 263 264 266 269 270 273 275 277 279 281
235 239 244 249 253 257 260 263 266 269 271 273 275 277 278 280 283 283 284 284 283 282 280 279 275 272 269 267 265 263 261 260 261 262 265 267 268 271 274 276 278 280 282
238 243 247 251 256 259 262 265 268 270 273 275 277 279 281 284 285 287 287 287 285 284 282 281 279 274 270 266 264 262 261 260 261 263 265 267 270 272 274 276 279 281 283
243 248 252 255 258 260 263 266 269 272 274 277 279 281 284 287 288 289 289 290 289 287 286 283 280 275 271 267 264 261 260 259 261 264 267 268 271 272 275 278 281 283 284
247 250 252 255 257 260 263 267 271 274 276 280 283 284 287 291 292 292 292 292 292 291 289 283 279 276 271 266 262 261 260 261 263 265 268 270 272 275 278 281 283 285 287
248 251 253 254 256 261 265 271 274 276 278 282 285 288 290 293 297 298 297 297 297 297 293 286 279 275 271 268 263 261 262 263 266 269 272 274 276 279 282 284 286 288 291
249 251 253 255 258 263 268 272 273 276 279 284 288 291 292 295 299 301 301 300 301 302 298 289 281 276 273 269 267 265 266 267 270 272 274 279 281 282 285 289 291 293 294
249 251 254 258 263 266 268 270 273 276 279 285 290 292 294 297 301 304 306 305 304 304 303 297 288 283 277 273 271 272 273 273 277 279 281 285 287 290 291 293 294 296 298
248 252 257 262 264 266 266 269 272 274 277 284 289 293 295 298 302 304 305 306 305 305 305 302 294 289 285 281 279 279 280 283 285 286 287 290 292 294 295 296 298 299 301
250 254 258 262 263 263 265 268 269 271 277 282 289 295 298 298 299 302 307 307 305 306 305 304 302 296 292 290 288 288 289 291 292 293 294 295 296 298 299 300 301 302 303
252 254 257 259 260 261 264 266 267 269 274 279 287 293 297 300 300 301 303 306 309 309 307 305 305 302 300 298 297 297 297 297 297 298 298 300 301 302 302 303 304 304 305
251 253 254 256 258 260 261 263 267 269 272 277 283 289 293 296 300 303 304 306 309 310 310 308 307 306 305 304 303 302 302 302 302 302 302 303 304 304 305 306 306 306 306
251 253 253 256 257 259 260 263 266 268 269 273 281 287 291 295 299 303 305 308 309 310 311 310 309 309 308 308 307 306 305 305 305 306 306 306 306 307 307 308 308 308 307
252 253 254 255 256 258 260 263 266 266 268 273 280 287 290 292 296 299 303 306 309 311 312 312 311 310 310 310 309 309 309 309 308 309 309 309 309 309 309 309 309 309 309
251 253 254 254 256 258 260 263 265 265 267 273 281 287 289 290 293 297 301 306 309 311 312 312 311 311 311 311 311 310 310 310 311 311 312 311 311 312 312 312 311 311 311
Height
5767 5771 5776 5780 5783 5786 5789 5791 5792 5794 5794 5796 5797 5798 5799 5799 5800 5800 5800 5800 5800 5800 5800 5800 5799 5799 5798 5797 5796 5795 5794 5793 5792 5791 5789 5788 5786 5785 5783 5781 5779 5778 5776
5759 5764 5768 5772 5776 5779 5781 5783 5785 5786 5787 5788 5789 5790 5790 5791 5792 5792 5792 5792 5792 5792 5791 5791 5790 5790 5789 5788 5788 5787 5785 5784 5783 5782 5780 5779 5779 5777 5775 5773 5771 5769 5767
5751 5756 5760 5764 5768 5771 5774 5776 5777 5778 5779 5780 5781 5781 5782 5783 5784 5784 5784 5783 5783 5782 5782 5782 5781 5780 5780 5779 5778 5777 5776 5775 5774 5772 5771 5770 5770 5768 5766 5764 5762 5760 5758
5744 5748 5752 5756 5759 5763 5765 5767 5769 5770 5771 5772 5772 5773 5774 5774 5775 5775 5774 5774 5773 5773 5772 5772 5771 5770 5770 5769 5768 5767 5765 5764 5763 5762 5761 5760 5759 5758 5756 5754 5752 5750 5748
5736 5740 5744 5747 5751 5754 5756 5758 5760 5761 5762 5763 5764 5764 5765 5765 5765 5765 5765 5764 5763 5763 5762 5761 5760 5759 5759 5758 5756 5756 5754 5753 5752 5751 5750 5748 5747 5746 5745 5743 5742 5739 5737
5728 5732 5735 5739 5742 5745 5747 5749 5751 5752 5753 5754 5754 5755 5755 5756 5755 5755 5755 5754 5753 5752 5751 5750 5749 5748 5747 5746 5745 5744 5743 5742 5741 5740 5739 5738 5736 5735 5733 5732 5730 5728 5725
5720 5723 5727 5730 5733 5735 5738 5739 5741 5742 5743 5744 5744 5745 5745 5745 5745 5744 5744 5743 5742 5741 5739 5737 5736 5735 5734 5733 5732 5731 5730 5729 5728 5728 5727 5726 5725 5724 5722 5720 5718 5716 5714
5712 5715 5718 5721 5724 5726 5728 5730 5731 5732 5733 5734 5734 5735 5735 5734 5734 5733 5732 5731 5730 5729 5727 5724 5723 5722 5720 5719 5718 5717 5716 5716 5716 5715 5715 5714 5713 5712 5710 5708 5706 5703 5701
5704 5707 5710 5712 5715 5717 5719 5720 5721 5723 5723 5724 5724 5724 5724 5723 5723 5721 5720 5719 5717 5715 5713 5710 5709 5707 5705 5704 5703 5702 5702 5702 5702 5702 5702 5701 5701 5699 5697 5695 5694 5691 5688
5696 5699 5702 5704 5706 5708 5710 5711 5713 5713 5714 5714 5714 5713 5712 5711 5710 5709 5707 5705 5703 5701 5698 5695 5693 5691 5689 5688 5687 5687 5687 5688 5688 5689 5689 5688 5688 5687 5685 5683 5681 5678 5675
5689 5692 5694 5696 5698 5700 5702 5703 5704 5704 5704 5704 5703 5703 5701 5700 5698 5696 5694 5691 5689 5685 5682 5679 5676 5674 5672 5671 5671 5671 5672 5673 5674 5675 5675 5675 5675 5674 5672 5670 5668 5665 5662
5682 5685 5687 5689 5691 5693 5694 5695 5695 5695 5695 5695 5694 5692 5691 5689 5687 5684 5681 5677 5674 5670 5666 5663 5659 5657 5656 5655 5656 5657 5658 5660 5661 5662 5662 5663 5662 5661 5660 5657 5655 5652 5649
5676 5678 5681 5683 5684 5685 5686 5687 5687 5687 5686 5685 5684 5682 5680 5678 5675 5671 5667 5663 5659 5655 5650 5646 5643 5641 5640 5640 5641 5642 5645 5647 5648 5650 5650 5651 5650 5649 5647 5645 5642 5640 5637
5671 5673 5674 5676 5677 5678 5678 5679 5679 5678 5677 5676 5674 5672 5670 5667 5663 5659 5655 5650 5645 5641 5636 5632 5629 5627 5626 5627 5628 5630 5632 5635 5637 5638 5639 5639 5638 5637 5636 5633 5630 5628 5624
5665 5666 5668 5669 5670 5671 5671 5671 5671 5670 5669 5667 5665 5663 5660 5656 5652 5648 5643 5639 5634 5629 5625 5621 5618 5617 5616 5616 5618 5620 5622 5624 5626 5627 5628 5628 5627 5626 5624 5622 5619 5615 5612
5659 5660 5661 5662 5663 5664 5664 5664 5663 5662 5660 5658 5656 5653 5650 5646 5642 5638 5633 5629 5624 5620 5616 5613 5611 5609 5609 5609 5610 5612 5613 5615 5616 5617 5618 5618 5617 5615 5613 5610 5607 5604 5599
5653 5654 5655 5656 5656 5657 5657 5656 5655 5654 5652 5650 5648 5645 5641 5638 5633 5629 5625 5621 5617 5613 5609 5607 5605 5604 5603 5604 5605 5606 5607 5608 5609 5609 5609 5608 5607 5605 5602 5599 5595 5591 5586
5647 5648 5649 5649 5650 5650 5650 5649 5648 5647 5645 5643 5640 5637 5634 5630 5627 5623 5619 5615 5612 5608 5605 5603 5601 5600 5600 5600 5600 5600 5601 5601 5601 5601 5600 5599 5597 5594 5591 5587 5583 5578 5573
5641 5642 5643 5643 5644 5643 5643 5642 5641 5640 5638 5636 5634 5631 5628 5625 5621 5618 5614 5611 5608 5605 5602 5600 5598 5597 5596 5596 5596 5596 5596 5595 5594 5593 5592 5590 5587 5584 5580 5576 5571 5565 5559
5636 5637 5637 5638 5638 5637 5637 5636 5635 5634 5633 5631 5628 5626 5623 5620 5617 5614 5611 5608 5605 5602 5600 5598 5596 5595 5594 5593 5592 5592 5591 5590 5588 5586 5584 5581 5577 5573 5569 5564 5558 5552 5545
5631 5631 5632 5632 5632 5632 5631 5631 5630 5629 5627 5626 5623 5621 5618 5616 5613 5610 5607 5605 5602 5600 5597 5595 5593 5592 5591 5590 5588 5587 5585 5583 5581 5578 5575 5571 5567 5563 5557 5552 5545 5538 5531
5625 5626 5626 5626 5626 5626 5626 5625 5625 5624 5622 5621 5619 5617 5615 5612 5610 5607 5604 5602 5599 5597 5595 5593 5591 5589 5588 5586 5584 5581 5579 5576 5573 5570 5566 5562 5557 5552 5546 5539 5532 5525 5517
5620 5621 5621 5621 5621 5621 5621 5620 5620 5619 5618 5616 5615 5613 5611 5609 5606 5604 5601 5599 5596 5594 5592 5590 5588 5585 5583 5581 5578 5576 5573 5569 5565 5561 5557 5552 5546 5540 5534 5527 5519 5511 5503
5615 5616 5616 5616 5616 5616 5616 5615 5615 5614 5613 5612 5611 5609 5607 5605 5603 5600 5598 5596 5593 5591 5589 5586 5584 5581 5578 5576 5572 5569 5565 5561 5557 5552 5547 5541 5535 5529 5521 5514 5506 5497 5489
5610 5611 5611 5612 5612 5611 5611 5611 5610 5609 5609 5608 5606 5605 5603 5601 5599 5597 5595 5592 5590 5588 5585 5582 5579 5576 5573 5570 5566 5562 5558 5553 5548 5543 5537 5530 5523 5516 5508 5500 5492 5484 5476
5605 5606 5606 5607 5607 5607 5607 5606 5606 5605 5604 5603 5602 5601 5599 5597 5595 5593 5591 5588 5586 5583 5580 5577 5574 5570 5567 5563 5559 5555 5550 5545 5539 5533 5526 5519 5511 5503 5495 5487 5479 5472 5464